| time (UTC) | temp C | wind direction | speed KPH | gust KPH | rain 1hr cm | rain 24hr cm | rain mn cm | humidity % | barometer mb |
| 20260904172145 | 34 | 164 | 4.8 | 6.4 | 0.00 | 0.00 | 0.00 | 58 | 1014.3 |
| 20260904171146 | 34 | 206 | 1.6 | 4.8 | 0.00 | 0.00 | 0.00 | 60 | 1014.4 |
| 20260904170145 | 34 | 191 | 1.6 | 1.6 | 0.00 | 0.00 | 0.00 | 61 | 1014.4 |
| 20260904165146 | 33 | 188 | 1.6 | 4.8 | 0.00 | 0.00 | 0.00 | 62 | |
| 20260904164146 | 32 | 112 | 4.8 | 6.4 | 0.00 | 0.00 | 0.00 | 64 | |
| 20260904163146 | 32 | 120 | 9.7 | 11.3 | 0.00 | 0.00 | 0.00 | 66 | |
| 20260904162307 | 32 | 145 | 9.7 | 12.9 | 0.00 | 0.00 | 0.00 | 67 | |
| 20260904161146 | 32 | 122 | 8.0 | 14.5 | 0.00 | 0.00 | 0.00 | 69 | |
| 20260904160145 | 31 | 131 | 4.8 | 9.7 | 0.00 | 0.00 | 0.00 | 71 | |
| 20260904155145 | 31 | 124 | 6.4 | 11.3 | 0.00 | 0.00 | 0.00 | 72 | |
| 20260904154206 | 31 | 124 | 8.0 | 11.3 | 0.00 | 0.00 | 0.00 | 73 | |
| 20260904153145 | 31 | 123 | 3.2 | 8.0 | 0.00 | 0.00 | 0.00 | 74 | |
| 20260904152145 | 31 | 114 | 8.0 | 9.7 | 0.00 | 0.00 | 0.00 | 74 | |
| 20260904151145 | 30 | 130 | 6.4 | 9.7 | 0.00 | 0.00 | 0.00 | 76 | |
| 20260904150145 | 30 | 132 | 9.7 | 12.9 | 0.00 | 0.00 | 0.00 | 76 | |
| 20260904145145 | 30 | 119 | 8.0 | 9.7 | 0.00 | 0.00 | 0.00 | 77 | |
| 20260904144146 | 30 | 128 | 6.4 | 9.7 | 0.00 | 0.00 | 0.00 | 77 | |
| 20260904143145 | 29 | 122 | 4.8 | 6.4 | 0.00 | 0.00 | 0.00 | 79 | |
| 20260904142147 | 29 | 123 | 6.4 | 11.3 | 0.00 | 0.00 | 0.00 | 79 | |
| 20260904141145 | 29 | 124 | 8.0 | 9.7 | 0.00 | 0.00 | 0.00 | 79 | |
| 20260904140207 | 28 | 135 | 3.2 | 4.8 | 0.00 | 0.00 | 0.00 | 80 | |
| 20260904135145 | 28 | 130 | 6.4 | 8.0 | 0.00 | 0.00 | 0.00 | 80 | |
| 20260904134145 | 28 | 143 | 1.6 | 4.8 | 0.00 | 0.00 | 0.00 | 81 | |
| 20260904133146 | 28 | 126 | 1.6 | 1.6 | 0.00 | 0.00 | 0.00 | 81 | |
| 20260904132146 | 28 | 143 | 0.0 | 1.6 | 0.00 | 0.00 | 0.00 | 82 | |
| 20260904131145 | 28 | 119 | 3.2 | 6.4 | 0.00 | 0.00 | 0.00 | 82 | |
| 20260904130146 | 28 | 121 | 4.8 | 6.4 | 0.00 | 0.00 | 0.00 | 82 | |
| 20260904125146 | 28 | 111 | 6.4 | 8.0 | 0.00 | 0.00 | 0.00 | 82 | |
| 20260904124146 | 28 | 129 | 4.8 | 6.4 | 0.00 | 0.00 | 0.00 | 82 | |
| 20260904123145 | 28 | 139 | 4.8 | 6.4 | 0.00 | 0.00 | 0.00 | 82 | |
| 20260904122145 | 28 | 125 | 6.4 | 11.3 | 0.00 | 0.00 | 0.00 | 82 | |
| 20260904121145 | 28 | 119 | 4.8 | 9.7 | 0.00 | 0.00 | 0.00 | 83 | |
| 20260904120145 | 28 | 116 | 4.8 | 6.4 | 0.00 | 0.00 | 0.00 | 83 | |
| 20260904115146 | 28 | 137 | 6.4 | 8.0 | 0.00 | 0.00 | 0.00 | 84 | |
| 20260904114145 | 28 | 119 | 6.4 | 8.0 | 0.00 | 0.00 | 0.00 | 84 | |
| 20260904113145 | 28 | 117 | 8.0 | 8.0 | 0.00 | 0.00 | 0.00 | 84 | |
| 20260904112145 | 28 | 120 | 8.0 | 9.7 | 0.00 | 0.00 | 0.00 | 84 | |
| 20260904111205 | 28 | 139 | 3.2 | 6.4 | 0.00 | 0.00 | 0.00 | 84 | |
| 20260904110145 | 28 | 153 | 4.8 | 4.8 | 0.00 | 0.00 | 0.00 | 85 | |
| 20260904105146 | 28 | 143 | 6.4 | 9.7 | 0.00 | 0.00 | 0.00 | 86 | |
| 20260904104145 | 28 | 147 | 4.8 | 4.8 | 0.00 | 0.00 | 0.00 | 86 | |
| 20260904103145 | 28 | 123 | 4.8 | 8.0 | 0.00 | 0.00 | 0.00 | 87 | |
| 20260904102146 | 28 | 171 | 4.8 | 8.0 | 0.00 | 0.00 | 0.00 | 86 | |
| 20260904101145 | 28 | 150 | 4.8 | 8.0 | 0.00 | 0.00 | 0.00 | 86 | |
| 20260904100147 | 28 | 133 | 0.0 | 3.2 | 0.00 | 0.00 | 0.00 | 85 | |
| 20260904095145 | 28 | 119 | 6.4 | 8.0 | 0.00 | 0.00 | 0.00 | 85 | |
| 20260904094145 | 28 | 148 | 4.8 | 6.4 | 0.00 | 0.00 | 0.00 | 85 | |
| 20260904093206 | 28 | 123 | 3.2 | 6.4 | 0.00 | 0.00 | 0.00 | 85 | |
| 20260904092207 | 29 | 124 | 4.8 | 6.4 | 0.00 | 0.00 | 0.00 | 84 | |
| 20260904091146 | 29 | 128 | 3.2 | 4.8 | 0.00 | 0.00 | 0.00 | 84 | |
| 20260904090146 | 29 | 138 | 3.2 | 3.2 | 0.00 | 0.00 | 0.00 | 84 | |
| 20260904085146 | 29 | 141 | 4.8 | 6.4 | 0.00 | 0.00 | 0.00 | 83 | |
| 20260904084208 | 29 | 151 | 6.4 | 6.4 | 0.00 | 0.00 | 0.00 | 82 | |
| 20260904083207 | 29 | 153 | 8.0 | 9.7 | 0.00 | 0.00 | 0.00 | 80 | |
| 20260904082146 | 29 | 180 | 3.2 | 8.0 | 0.00 | 0.00 | 0.00 | 78 | |
| 20260904081146 | 29 | 145 | 3.2 | 6.4 | 0.00 | 0.00 | 0.00 | 76 | |
| 20260904080146 | 29 | 161 | 3.2 | 4.8 | 0.00 | 0.00 | 0.00 | 76 | |
| 20260904075146 | 29 | 144 | 1.6 | 3.2 | 0.00 | 0.00 | 0.00 | 75 | |
| 20260904074146 | 30 | 147 | 3.2 | 4.8 | 0.00 | 0.00 | 0.00 | 74 | |
| 20260904073147 | 30 | 162 | 4.8 | 6.4 | 0.00 | 0.00 | 0.00 | 74 | |
| 20260904072146 | 30 | 153 | 4.8 | 6.4 | 0.00 | 0.00 | 0.00 | 74 | |
| 20260904071146 | 30 | 186 | 6.4 | 8.0 | 0.00 | 0.00 | 0.00 | 74 | |
| 20260904070146 | 30 | 164 | 3.2 | 6.4 | 0.00 | 0.00 | 0.00 | 74 | |
| 20260904065146 | 30 | 152 | 4.8 | 4.8 | 0.00 | 0.00 | 0.00 | 75 | |
| 20260904064146 | 30 | 152 | 6.4 | 8.0 | 0.00 | 0.00 | 0.00 | 75 | |
| 20260904063147 | 30 | 171 | 6.4 | 6.4 | 0.00 | 0.00 | 0.00 | 75 | |
| 20260904062146 | 30 | 144 | 4.8 | 8.0 | 0.00 | 0.00 | 0.00 | 75 | |
| 20260904061147 | 30 | 172 | 1.6 | 3.2 | 0.00 | 0.00 | 0.00 | 76 | |
| 20260904060146 | 30 | 142 | 3.2 | 6.4 | 0.00 | 0.00 | 0.00 | 76 | |
| 20260904055146 | 30 | 115 | 6.4 | 8.0 | 0.00 | 0.00 | 0.00 | 76 | |
| 20260904054146 | 30 | 142 | 4.8 | 9.7 | 0.00 | 0.00 | 0.00 | 75 | |
| 20260904053216 | 30 | 131 | 8.0 | 9.7 | 0.00 | 0.00 | 0.00 | 75 |